Wind_Speed
8 9 9 7 7 4 9 6 14 12 10 7 8 10 13 10 11 10 11 12 13 13 13 14 14 16 17 19 19 19 20 20 20 20 20 22 23 23 23 24 25 24 25 26 26 26 26 25 26
8 8 9 10 11 8 10 10 13 12 8 9 10 11 11 10 9 10 12 12 12 13 14 15 16 17 18 20 20 21 21 22 22 22 23 23 24 25 25 26 27 27 26 27 28 29 29 30 29
6 8 8 2 8 11 11 8 13 13 11 10 12 12 13 10 9 11 13 13 14 15 14 15 16 17 18 19 20 21 21 22 24 25 26 26 27 27 27 28 28 28 29 29 28 28 27 27 26
6 8 7 12 9 10 10 12 13 13 11 9 12 9 11 10 11 12 13 11 14 14 13 13 14 14 15 17 17 19 21 22 23 24 25 27 27 27 27 28 28 28 29 29 28 28 28 26 27
6 6 10 7 4 14 7 8 5 6 8 8 12 9 10 11 12 13 15 15 10 10 10 12 14 16 18 20 21 24 25 27 27 28 28 29 30 31 30 31 30 31 31 31 29 29 29 28 28
9 16 9 6 12 9 2 1 4 5 5 7 12 8 10 11 11 11 12 12 11 12 13 14 16 18 20 23 24 27 28 31 33 32 31 32 32 32 31 31 31 31 31 31 30 29 29 30 30
18 12 11 16 1 1 4 8 5 8 7 1 7 8 8 8 12 14 14 14 14 8 15 15 16 20 23 24 25 25 27 31 34 34 36 37 35 33 31 31 30 29 29 29 28 28 29 31 32
12 6 19 21 11 10 6 7 3 1 5 5 10 10 12 14 12 15 15 16 16 17 9 18 20 24 21 24 26 27 32 31 28 28 32 35 33 31 27 29 27 27 29 28 27 29 29 30 31
8 14 27 11 10 1 9 6 11 5 7 12 13 16 10 12 13 15 15 16 17 18 19 12 18 22 22 21 26 26 26 29 26 24 27 26 26 26 23 26 27 27 29 29 29 30 27 30 33
19 13 18 17 16 7 5 15 9 11 15 15 18 10 13 9 13 14 16 16 19 23 24 24 23 27 25 21 26 27 27 26 21 19 21 19 21 24 22 24 23 24 27 26 26 27 31 34 34
24 6 9 4 10 11 12 13 13 9 10 18 14 18 12 9 11 13 17 21 19 24 27 28 26 30 30 31 31 29 28 26 21 20 24 22 21 25 26 24 25 28 26 30 29 29 31 32 36
14 20 10 17 13 4 6 14 17 10 12 12 24 30 17 14 14 16 19 24 25 23 28 31 30 32 34 33 33 32 22 23 19 18 27 21 22 24 22 28 29 28 27 28 31 33 36 37 38
13 8 14 16 14 14 11 8 11 21 16 16 16 20 20 20 19 17 21 24 29 26 29 33 34 34 33 33 29 29 20 21 21 22 24 26 21 22 22 24 24 25 27 28 30 34 34 35 37
10 10 10 10 13 15 10 6 18 24 19 15 14 16 21 19 21 22 24 24 28 27 28 31 34 32 31 26 24 24 21 21 23 24 26 27 24 24 25 27 26 26 27 29 29 32 34 38 38
11 10 15 6 5 14 13 8 19 25 35 20 17 19 22 21 23 25 26 26 28 30 29 31 31 28 27 23 21 21 22 21 21 21 23 24 26 27 27 27 26 27 30 31 31 32 34 35 38
6 16 21 22 24 19 9 10 22 29 26 24 26 20 26 26 27 29 31 31 29 29 30 30 29 25 25 23 21 21 22 22 23 22 23 24 25 23 24 27 27 28 28 28 28 31 35 38 42
19 22 26 14 29 12 16 7 24 24 28 25 28 28 28 29 29 29 30 31 27 28 30 29 27 25 25 25 21 20 20 22 23 24 24 24 24 24 26 26 25 25 27 27 28 31 37 42 46
12 15 10 25 21 16 6 6 30 28 31 34 28 28 26 28 28 32 33 31 28 27 28 28 28 27 25 25 21 21 21 23 24 26 27 27 28 27 27 25 23 25 26 28 30 35 39 43 47
15 16 13 25 26 29 30 11 26 27 32 30 35 23 24 30 19 20 26 25 25 28 29 27 28 28 25 23 22 21 20 23 25 27 28 28 28 28 26 27 25 26 26 28 32 35 40 44 47
19 18 16 23 16 21 21 22 25 28 31 31 43 37 26 32 28 24 23 26 27 28 31 28 30 29 25 20 21 23 22 24 26 27 28 28 27 26 25 27 28 29 30 32 34 37 40 45 47
12 15 22 16 13 14 21 28 29 29 30 37 33 24 25 31 25 29 31 29 29 28 28 26 26 22 22 21 23 23 22 23 25 26 28 28 26 25 26 26 27 30 31 34 36 39 42 45 46
13 14 20 20 23 23 22 34 26 37 41 41 42 34 17 22 25 27 29 28 27 26 26 25 24 20 22 24 24 23 24 24 25 27 28 23 26 24 25 26 27 30 32 33 35 38 42 46 46
22 18 20 21 24 29 23 35 37 34 39 38 33 38 35 37 22 28 27 28 24 24 24 22 21 24 23 22 22 23 26 25 26 26 26 25 24 24 28 28 29 30 32 33 35 37 40 44 46
21 23 22 21 21 29 25 34 36 32 33 25 30 49 30 27 34 31 30 28 24 21 22 22 25 24 20 23 23 23 26 27 26 29 28 26 25 24 28 29 30 31 33 34 35 36 38 41 43
16 19 22 25 23 24 30 35 42 41 29 33 43 42 38 33 26 34 24 24 24 21 24 18 18 21 24 25 25 25 27 28 28 31 29 30 30 29 29 29 30 31 32 34 35 35 35 37 38
26 22 20 29 36 29 19 33 31 31 44 42 43 31 39 30 22 25 15 23 24 23 15 14 18 21 23 24 26 27 29 30 31 33 35 33 34 33 32 33 33 34 33 32 33 34 33 34 35
24 23 19 26 29 32 24 23 41 52 30 26 27 34 31 25 25 25 15 22 14 16 19 19 18 23 23 25 27 28 30 33 33 33 34 34 35 36 34 34 33 34 35 33 32 31 31 31 29
17 34 24 25 35 40 32 34 42 42 25 36 25 25 21 20 21 14 20 18 19 17 17 19 21 23 26 26 27 29 31 33 35 37 37 37 37 37 37 36 34 34 35 34 33 30 30 29 28
17 18 30 37 38 38 38 30 38 36 43 41 37 37 23 30 11 20 22 22 23 20 19 21 23 26 30 31 31 31 29 31 33 36 37 39 39 39 39 36 34 33 34 34 33 31 28 27 27
18 21 26 23 35 28 37 35 38 31 32 29 19 35 24 24 18 25 22 22 25 22 20 21 27 23 20 19 23 25 30 32 33 34 35 38 40 40 40 39 37 36 35 34 32 30 29 26 25
Wind_Direction
185 184 179 188 181 245 173 250 258 270 275 264 266 257 252 255 260 265 262 268 269 269 275 281 287 287 285 283 281 279 281 284 284 283 282 280 280 280 280 279 280 280 281 282 284 285 287 286 284
196 188 183 184 181 273 262 223 252 275 265 278 263 258 259 262 258 260 262 267 268 273 279 284 286 286 284 286 291 293 291 288 286 284 282 280 279 278 278 277 278 281 281 283 286 288 289 287 286
187 175 181 273 240 230 252 56 277 278 272 273 255 262 271 268 271 272 272 271 274 279 283 287 287 289 289 290 288 286 287 286 285 284 281 278 277 277 278 279 279 281 286 288 288 288 288 289 287
163 175 183 218 222 225 229 267 291 267 252 267 275 265 275 287 284 283 284 287 293 294 304 304 302 299 296 295 291 291 285 283 278 277 277 277 278 279 278 279 281 283 285 285 286 286 287 288 288
154 175 131 131 190 240 231 258 321 301 247 260 272 301 286 289 290 293 297 298 290 294 294 295 294 294 293 291 292 289 286 284 281 278 275 275 278 279 280 280 280 281 282 283 283 284 286 286 286
202 140 176 134 282 248 266 338 331 335 295 276 286 294 291 295 298 300 303 300 296 300 297 300 300 297 298 294 292 291 291 289 282 276 276 275 274 275 277 278 279 280 282 284 285 284 285 285 283
303 166 131 141 166 274 41 57 350 34 331 331 303 324 304 310 308 303 296 289 283 280 293 294 301 301 302 305 300 294 302 305 292 279 276 274 273 273 273 276 279 279 280 281 284 286 283 282 284
262 79 167 141 236 156 265 290 118 298 277 326 307 323 323 309 295 292 290 286 288 295 290 310 311 303 305 299 300 298 301 306 302 286 286 276 271 272 276 278 279 282 282 284 285 284 287 288 288
297 256 288 108 144 225 277 325 340 339 2 310 293 273 278 301 303 299 302 304 308 311 310 311 305 301 305 313 311 316 312 313 310 303 298 287 276 276 277 279 282 289 291 291 290 289 286 287 288
266 257 290 229 158 140 347 330 58 341 309 298 222 303 312 308 300 303 305 308 314 314 309 310 317 308 306 311 311 316 315 312 309 312 317 308 291 283 280 282 285 291 293 296 296 291 294 298 298
270 306 315 266 47 95 333 304 283 248 262 298 283 330 294 326 313 306 308 306 310 310 309 305 315 312 311 310 310 314 311 307 303 311 312 305 297 292 290 293 292 300 301 305 302 301 302 300 298
272 324 358 331 349 30 239 279 313 304 281 277 290 306 326 309 297 307 313 315 308 317 312 308 311 312 312 313 313 308 312 300 306 311 326 297 300 306 290 303 299 295 295 296 295 301 303 300 301
249 264 351 303 293 296 292 278 257 283 287 286 290 291 298 300 297 295 304 310 308 317 312 309 309 307 304 305 305 304 311 304 304 301 307 312 296 327 307 302 303 304 298 300 304 302 305 306 303
250 275 299 297 302 291 299 263 283 276 263 258 271 279 285 286 287 288 300 305 307 312 314 313 313 312 308 301 297 304 312 312 310 313 313 313 314 317 310 308 309 309 308 306 308 308 308 308 309
270 303 315 256 243 265 300 277 270 282 283 293 291 290 289 284 286 286 295 301 305 311 310 320 318 312 313 304 296 305 308 314 315 315 316 317 315 315 313 313 312 312 311 311 313 314 309 311 309
277 268 240 254 253 256 282 295 291 283 292 299 290 282 283 281 281 284 288 293 299 304 303 311 316 304 308 298 302 304 307 316 319 319 317 312 311 313 312 314 316 315 313 316 318 315 315 318 318
221 241 260 303 303 269 309 303 285 287 288 301 301 291 282 282 279 282 284 288 297 302 303 301 310 300 300 296 301 302 308 313 317 321 317 312 311 313 315 317 316 317 316 320 322 320 324 324 323
253 266 325 337 326 324 247 297 298 306 304 289 295 296 294 289 286 289 294 293 297 306 308 300 305 304 294 294 298 302 308 311 317 317 314 309 310 311 312 311 316 314 318 321 324 327 327 325 322
318 349 352 319 325 327 317 313 294 293 291 301 297 284 295 294 303 302 296 292 295 306 314 305 298 296 294 295 296 300 304 310 313 314 314 313 309 309 311 309 313 311 315 320 324 329 328 325 324
336 319 283 251 275 286 313 319 307 281 291 298 295 295 292 291 298 297 298 299 298 300 308 302 299 291 290 295 300 304 309 310 310 313 314 309 309 311 312 312 314 316 320 324 327 329 330 329 329
300 303 315 282 276 284 296 290 293 284 282 267 283 231 279 290 305 301 302 301 298 299 304 296 299 283 285 289 296 301 303 305 309 314 314 313 311 313 312 314 315 317 320 324 328 331 333 333 333
302 283 284 296 291 287 268 278 270 277 282 278 284 289 283 277 313 307 299 298 297 299 300 288 293 283 295 295 295 302 301 307 311 316 314 316 312 314 310 311 314 318 322 325 329 332 336 337 335
274 289 284 286 299 300 295 278 286 271 287 277 300 304 313 213 319 315 298 306 297 299 293 290 291 288 296 291 295 300 302 307 307 308 310 312 310 313 309 312 315 320 323 325 330 336 337 339 338
312 311 299 300 310 293 308 304 305 294 273 255 314 314 317 220 313 315 305 305 297 297 284 285 286 291 295 297 298 299 302 303 306 306 307 305 304 308 308 314 317 320 321 324 329 334 337 340 341
294 297 305 294 297 289 291 304 311 317 308 322 304 306 307 298 304 306 307 294 287 284 285 297 297 290 292 299 301 297 297 298 301 300 301 302 302 305 304 306 310 316 321 323 327 331 336 338 339
290 291 294 302 296 303 306 309 311 297 292 296 296 280 286 292 309 291 299 287 294 282 290 298 299 299 300 298 302 298 296 297 297 298 301 303 302 301 302 305 309 314 317 320 325 328 334 337 339
297 304 290 296 287 282 271 271 277 279 256 293 285 275 289 294 295 302 299 285 288 287 291 295 293 300 300 297 298 298 295 294 295 296 296 298 300 301 302 304 308 312 313 315 320 325 330 334 334
311 287 323 290 287 298 301 290 284 278 289 299 295 233 233 286 290 273 287 287 288 286 282 290 295 299 297 294 296 298 297 295 292 291 293 297 300 301 303 303 305 308 310 312 314 320 323 330 335
284 266 274 287 292 297 301 302 307 310 283 290 285 257 226 292 259 280 276 282 281 279 286 292 301 304 304 299 300 299 296 297 298 296 296 298 298 300 300 300 302 305 307 307 310 314 318 324 327
304 282 304 287 300 295 292 309 296 300 306 300 298 307 287 220 276 279 278 276 277 272 274 292 309 314 327 315 306 306 300 302 302 304 304 303 302 299 298 296 297 300 301 303 304 308 312 316 322
Height
5908 5910 5912 5914 5917 5914 5913 5913 5913 5913 5913 5914 5914 5914 5913 5913 5911 5914 5912 5912 5913 5913 5913 5912 5911 5911 5910 5910 5909 5908 5908 5907 5907 5906 5906 5907 5906 5906 5905 5904 5903 5902 5901 5901 5900 5900 5900 5898 5898
5908 5911 5911 5913 5914 5913 5914 5914 5913 5914 5914 5913 5913 5912 5911 5911 5911 5911 5911 5912 5913 5912 5911 5911 5910 5910 5909 5908 5907 5907 5905 5904 5903 5902 5902 5902 5902 5901 5900 5900 5900 5899 5897 5896 5895 5895 5893 5893 5892
5908 5910 5912 5912 5914 5914 5914 5901 5911 5914 5913 5912 5911 5911 5910 5910 5911 5911 5911 5911 5911 5910 5909 5909 5909 5908 5907 5906 5906 5905 5903 5902 5901 5900 5900 5899 5898 5897 5896 5896 5895 5894 5894 5893 5891 5890 5889 5889 5888
5908 5911 5912 5910 5912 5912 5912 5912 5911 5910 5911 5912 5909 5910 5911 5910 5910 5910 5909 5911 5908 5909 5908 5908 5907 5906 5905 5905 5904 5903 5902 5900 5898 5897 5896 5895 5894 5892 5891 5891 5890 5889 5889 5889 5888 5887 5886 5885 5884
5907 5907 5908 5911 5912 5911 5913 5912 5911 5909 5910 5911 5909 5910 5909 5909 5908 5908 5907 5907 5908 5906 5907 5905 5905 5904 5903 5902 5899 5899 5898 5897 5894 5893 5892 5891 5890 5889 5887 5887 5885 5885 5884 5884 5883 5882 5882 5880 5879
5898 5889 5906 5908 5912 5911 5911 5911 5911 5910 5910 5910 5907 5908 5907 5907 5907 5907 5906 5905 5905 5905 5905 5903 5902 5901 5899 5898 5896 5895 5893 5892 5889 5887 5887 5885 5884 5883 5883 5882 5881 5880 5880 5879 5878 5877 5875 5874 5873
5898 5888 5906 5907 5912 5911 5911 5912 5910 5910 5907 5910 5908 5905 5907 5906 5906 5906 5906 5905 5904 5907 5902 5901 5899 5897 5895 5894 5892 5890 5888 5886 5883 5881 5880 5879 5878 5876 5877 5876 5876 5875 5874 5873 5872 5871 5869 5868 5867
5902 5905 5902 5901 5911 5912 5911 5911 5909 5911 5910 5910 5908 5905 5905 5905 5904 5904 5904 5903 5902 5899 5902 5897 5895 5893 5892 5890 5888 5887 5883 5881 5877 5875 5873 5871 5871 5870 5872 5871 5871 5870 5868 5867 5866 5864 5863 5862 5860
5904 5904 5896 5890 5907 5911 5910 5911 5912 5909 5910 5908 5903 5899 5900 5900 5900 5900 5900 5899 5898 5896 5893 5899 5895 5892 5891 5886 5882 5881 5879 5876 5872 5870 5867 5866 5865 5865 5868 5864 5865 5864 5862 5862 5859 5858 5856 5855 5853
5909 5904 5906 5903 5895 5903 5908 5908 5905 5910 5907 5904 5896 5898 5900 5896 5898 5898 5897 5896 5895 5893 5891 5889 5889 5885 5884 5884 5880 5878 5875 5872 5869 5867 5865 5863 5862 5862 5865 5862 5861 5859 5856 5855 5853 5851 5850 5848 5847
5908 5890 5904 5901 5901 5902 5912 5910 5909 5909 5904 5902 5880 5888 5900 5894 5896 5896 5894 5893 5894 5892 5888 5886 5886 5881 5878 5877 5875 5873 5870 5868 5866 5865 5861 5859 5858 5858 5856 5856 5856 5853 5852 5848 5847 5845 5845 5843 5840
5908 5904 5901 5904 5904 5909 5912 5909 5906 5906 5905 5907 5896 5887 5892 5895 5896 5894 5893 5890 5888 5890 5885 5879 5881 5878 5873 5871 5868 5867 5869 5863 5863 5860 5858 5856 5855 5853 5853 5851 5848 5848 5846 5843 5841 5839 5837 5836 5833
5910 5910 5902 5907 5909 5909 5910 5909 5909 5904 5904 5902 5900 5895 5892 5893 5892 5892 5891 5889 5884 5885 5883 5878 5875 5874 5871 5869 5866 5864 5863 5859 5858 5856 5854 5853 5852 5850 5849 5848 5845 5842 5841 5839 5837 5835 5831 5829 5826
5908 5909 5910 5911 5910 5907 5906 5907 5903 5896 5895 5897 5896 5895 5891 5891 5890 5889 5888 5887 5881 5881 5879 5874 5871 5868 5866 5865 5863 5860 5859 5857 5854 5852 5850 5848 5847 5846 5844 5842 5840 5839 5836 5834 5832 5829 5826 5822 5819
5908 5910 5908 5906 5904 5904 5903 5903 5899 5896 5895 5895 5894 5892 5890 5887 5886 5884 5883 5882 5879 5876 5873 5870 5868 5864 5862 5861 5860 5857 5855 5853 5852 5849 5847 5844 5842 5841 5839 5837 5835 5833 5829 5827 5825 5822 5819 5817 5813
5907 5903 5901 5899 5898 5898 5899 5900 5896 5894 5893 5893 5887 5887 5885 5883 5881 5879 5878 5876 5875 5872 5869 5868 5864 5862 5860 5858 5856 5854 5851 5849 5847 5845 5843 5840 5838 5837 5835 5832 5830 5826 5824 5822 5819 5816 5812 5809 5804
5897 5896 5896 5896 5893 5896 5899 5895 5892 5891 5888 5889 5884 5880 5880 5879 5876 5874 5873 5871 5871 5867 5865 5863 5862 5859 5855 5853 5852 5850 5848 5846 5844 5841 5839 5837 5835 5833 5830 5827 5824 5822 5818 5816 5813 5810 5805 5800 5795
5894 5895 5898 5895 5895 5892 5888 5890 5890 5886 5884 5884 5880 5875 5873 5872 5873 5870 5869 5868 5867 5864 5861 5858 5856 5854 5851 5849 5848 5846 5844 5841 5839 5837 5834 5832 5830 5828 5825 5822 5820 5816 5813 5810 5807 5803 5798 5793 5788
5894 5893 5888 5896 5888 5887 5887 5889 5892 5887 5880 5876 5875 5871 5869 5863 5867 5865 5863 5862 5862 5860 5857 5854 5852 5849 5847 5846 5843 5842 5840 5837 5835 5833 5830 5827 5825 5823 5821 5817 5815 5811 5809 5806 5802 5797 5793 5787 5779
5892 5894 5897 5893 5896 5891 5890 5887 5887 5884 5882 5878 5871 5866 5865 5858 5859 5860 5858 5856 5855 5854 5852 5849 5847 5844 5842 5842 5839 5837 5835 5834 5831 5828 5826 5823 5821 5819 5816 5813 5810 5807 5804 5800 5796 5791 5786 5778 5770
5896 5896 5893 5892 5891 5890 5888 5886 5882 5873 5871 5862 5862 5853 5861 5854 5854 5855 5852 5850 5849 5848 5846 5844 5842 5840 5838 5839 5836 5834 5832 5830 5827 5825 5821 5819 5816 5814 5811 5809 5805 5802 5799 5794 5790 5785 5779 5772 5763
5894 5894 5890 5889 5887 5884 5884 5875 5878 5869 5864 5859 5854 5832 5847 5845 5846 5850 5849 5844 5843 5842 5840 5839 5838 5837 5835 5834 5831 5829 5827 5825 5822 5820 5817 5816 5811 5810 5807 5804 5801 5798 5794 5790 5784 5779 5772 5765 5757
5888 5886 5884 5882 5880 5877 5875 5870 5864 5861 5851 5848 5845 5846 5841 5816 5833 5842 5841 5839 5838 5837 5835 5834 5833 5832 5831 5829 5827 5824 5821 5820 5818 5816 5813 5811 5809 5807 5802 5801 5797 5793 5789 5784 5779 5773 5766 5759 5750
5884 5881 5879 5878 5877 5868 5867 5859 5857 5852 5844 5846 5840 5836 5833 5818 5826 5834 5833 5833 5832 5832 5830 5828 5827 5827 5826 5824 5822 5820 5816 5815 5814 5811 5809 5806 5804 5804 5798 5795 5792 5788 5783 5778 5773 5767 5761 5753 5744
5883 5880 5876 5875 5873 5868 5864 5856 5854 5844 5827 5835 5840 5830 5826 5828 5832 5831 5828 5827 5827 5828 5824 5823 5822 5821 5821 5820 5817 5814 5812 5810 5809 5806 5805 5801 5798 5796 5793 5790 5786 5782 5777 5772 5766 5762 5756 5749 5741
5877 5875 5873 5867 5863 5861 5865 5858 5846 5839 5840 5841 5842 5836 5830 5834 5818 5826 5823 5823 5822 5819 5820 5820 5818 5817 5815 5814 5813 5809 5807 5806 5804 5800 5797 5796 5792 5789 5787 5783 5779 5775 5771 5766 5761 5756 5752 5745 5737
5874 5871 5867 5862 5859 5853 5856 5856 5842 5827 5828 5836 5833 5830 5824 5824 5816 5817 5821 5818 5819 5816 5814 5813 5812 5810 5809 5808 5807 5805 5802 5799 5797 5795 5792 5789 5786 5782 5780 5776 5771 5768 5765 5760 5756 5751 5747 5742 5735
5870 5864 5858 5858 5848 5845 5844 5844 5829 5826 5821 5825 5821 5816 5817 5816 5812 5810 5813 5811 5813 5812 5810 5808 5808 5805 5803 5802 5801 5799 5797 5794 5790 5787 5784 5781 5778 5775 5771 5768 5765 5762 5758 5755 5750 5746 5742 5737 5731
5864 5863 5857 5851 5846 5839 5833 5835 5825 5821 5818 5822 5813 5806 5802 5803 5802 5806 5804 5808 5807 5808 5806 5803 5801 5799 5797 5795 5794 5791 5788 5786 5784 5780 5777 5773 5770 5767 5763 5760 5757 5754 5751 5748 5744 5741 5736 5732 5727
5857 5856 5852 5847 5842 5837 5831 5826 5818 5819 5815 5816 5808 5802 5804 5770 5797 5802 5803 5803 5802 5801 5803 5801 5797 5794 5791 5788 5786 5784 5782 5779 5776 5772 5769 5765 5761 5758 5754 5752 5749 5746 5743 5740 5737 5735 5731 5727 5722